Location: Bidwell Hollow
(37.7387°N, 90.1707°W)
Time: 23:05:59
(UTC+00:00)

Altair - Pass Details

Date: 17 May 2026
Orbit: 1501 x 1682 km, 47.2° (Epoch: 6 June)

Event Time Altitude Azimuth Distance (km) Brightness Sun altitude
Exits shadow 09:54:45 11° 226° (SW) 3,717 8.9 -10.2°
Maximum altitude 10:04:12 76° 143° (SE) 1,689 7.8 -8.6°
Drops below altitude 10° 10:14:18 10° 60° (ENE) 3,938 11.5 -6.9°
Sets 10:17:29 0° 59° (ENE) 4,936 13.0 -6.4°
